[[{"header":{"parameterUnit":"m.s-1","parameterCategory":1,"la1":30.2992,"la2":30.254,"lo1":-89.0895,"lo2":-89.0443,"dy":0.0025,"dx":0.0025,"nx":19,"ny":19,"refTime":"2026-04-09T21:00:00:Z","depth":0,"parameterNumber":2,"parameterNumberName":"U-component_of_WINDS"},"data":[0,0,0,-1.6652,-1.6654,-1.6716,-1.6716,-1.6818,-1.6819,0,0,0,0,0,0,0,0,0,0,0,-1.6648,-1.6649,-1.6652,-1.6654,-1.6716,-1.6716,-1.6818,-1.6819,0,0,0,0,0,0,0,0,0,0,0,-1.6647,-1.6648,-1.665,-1.6654,-1.6716,-1.6716,-1.6817,-1.6763,0,0,0,0,0,0,0,0,0,0,-1.6698,-1.6708,-1.6648,-1.665,-1.6655,-1.6716,-1.6716,-1.676,-1.6766,-1.68,0,-1.6833,0,-1.6828,-1.6827,-1.6828,0,0,0,-1.6644,-1.6703,-1.6707,-1.665,-1.6655,-1.6716,-1.6685,-1.6763,-1.677,-1.6808,-1.6834,-1.6838,-1.683,-1.6828,-1.6829,-1.7057,-1.7058,0,0,-1.664,-1.6666,-1.6702,-1.6712,-1.6704,-1.6683,-1.6687,-1.6767,-1.6797,-1.6835,-1.684,-1.6831,-1.6829,-1.683,-1.7055,-1.7057,0,0,0,-1.6637,-1.6665,-1.6666,-1.6709,-1.6718,-1.6685,-1.669,-1.6794,-1.6792,-1.684,-1.6832,-1.683,-1.6831,-1.7053,-1.7056,-1.7159,0,0,0,-1.6635,-1.6663,-1.6665,-1.6682,-1.6717,-1.6757,-1.6715,-1.6786,-1.6795,-1.6832,-1.683,-1.6832,-1.7052,-1.7055,-1.7153,-1.7205,0,0,0,-1.6639,-1.6663,-1.6677,-1.6683,-1.6711,-1.6755,-1.6757,-1.6788,-1.679,-1.6828,-1.6833,-1.7051,-1.7054,-1.7147,-1.7195,-1.7273,0,0,0,-1.6651,-1.6767,-1.6679,-1.6805,-1.671,-1.6818,-1.6757,-1.6835,-1.6879,-1.683,-1.7052,-1.7056,-1.7145,-1.7189,-1.7267,-1.7346,-1.7381,0,0,-1.6813,-1.6788,-1.686,-1.6783,-1.6913,-1.6806,-1.6951,-1.6967,-1.6946,-1.7021,-1.7026,-1.7155,-1.7194,-1.7272,-1.7561,-1.7589,0,0,0,-1.692,-1.6973,-1.7002,-1.7045,-1.7059,-1.7076,-1.7067,-1.7072,-1.7134,-1.699,-1.7202,-1.7225,-1.727,-1.7306,-1.733,-1.7367,-1.7073,-1.7073,-1.7072,-1.7189,-1.7156,-1.7273,-1.7248,-1.729,-1.7279,-1.731,-1.7316,-1.727,-1.732,-1.7344,-1.7523,-1.7567,-1.7584,-1.7624,-1.738,-1.7381,-1.7381,-1.7381,-1.7425,-1.7495,-1.7429,-1.7521,-1.7485,-1.7561,-1.7554,-1.7518,-1.7584,-1.7503,-1.7541,-1.7458,-1.7616,-1.7649,-1.7389,-1.7387,-1.7386,-1.7386,-1.7385,-1.7599,-1.7627,-1.7631,-1.769,-1.7739,-1.7707,-1.7774,-1.7738,-1.7704,-1.7741,-1.7763,-1.7761,-1.7756,-1.7753,-1.7754,-1.7755,-1.7755,-1.7756,-1.7756,-1.778,-1.7781,-1.7841,-1.7865,-1.7888,-1.7913,-1.7901,-1.7923,-1.7938,-1.7906,-1.7906,-1.7857,-1.7637,-1.7584,-1.7766,-1.7764,-1.7763,-1.7762,-1.7761,-1.8036,-1.7972,-1.8065,-1.8088,-1.8113,-1.8165,-1.8116,-1.8163,-1.8175,-1.8209,-1.815,-1.7993,-1.7965,-1.7946,-1.7902,-1.8156,-1.8156,-1.8156,-1.8156,-1.8185,-1.8166,-1.8254,-1.8293,-1.8327,-1.8292,-1.8399,-1.8391,-1.8372,-1.8377,-1.8334,-1.8272,-1.8254,-1.8237,-1.8212,-1.817,-1.8486,-1.8487,-1.8487,-1.8342,-1.8324,-1.8423,-1.8403,-1.8419,-1.8434,-1.8534,-1.8581,-1.8546,-1.85,-1.8381,-1.8367,-1.8266,-1.8234,-1.8189,-1.815,-1.8073,0,0]},{"header":{"parameterUnit":"m.s-1","parameterCategory":1,"la1":30.2992,"la2":30.254,"lo1":-89.0895,"lo2":-89.0443,"dy":0.0025,"dx":0.0025,"nx":19,"ny":19,"refTime":"2026-04-09T21:00:00:Z","depth":0,"parameterNumber":3,"parameterNumberName":"V-component_of_WINDS"},"data":[0,0,0,-2.0047,-2.0049,-2.0177,-2.0178,-2.0331,-2.0332,0,0,0,0,0,0,0,0,0,0,0,-2.0003,-2.0004,-2.0047,-2.005,-2.0177,-2.0178,-2.0331,-2.0332,0,0,0,0,0,0,0,0,0,0,0,-2.0003,-2.0004,-2.0005,-2.005,-2.0177,-2.0178,-2.033,-2.0237,0,0,0,0,0,0,0,0,0,0,-2.0115,-2.0069,-2.0003,-2.0005,-2.0051,-2.0177,-2.0178,-2.0233,-2.0243,-2.0268,0,-2.029,0,-2.0313,-2.0342,-2.0342,0,0,0,-2.0054,-2.0061,-2.01,-2.0005,-2.0052,-2.0177,-2.0121,-2.0239,-2.025,-2.0282,-2.0292,-2.0298,-2.0316,-2.0343,-2.0343,-2.0476,-2.0477,0,0,-2.0047,-2.0023,-2.0092,-2.0107,-2.0088,-2.0117,-2.0125,-2.0246,-2.0255,-2.0293,-2.0302,-2.0318,-2.0344,-2.0345,-2.0476,-2.0476,0,0,0,-2.0024,-2.0018,-2.0055,-2.0101,-2.0125,-2.012,-2.013,-2.025,-2.0264,-2.0304,-2.032,-2.0344,-2.0346,-2.0475,-2.0476,-2.0474,0,0,0,-2.002,-2.0004,-2.0051,-2.0038,-2.0122,-2.0189,-2.0131,-2.0256,-2.027,-2.0319,-2.0344,-2.0348,-2.0475,-2.0476,-2.0473,-2.0476,0,0,0,-1.9997,-2.0002,-2.0018,-2.0036,-2.0091,-2.0188,-2.0209,-2.026,-2.028,-2.0342,-2.0348,-2.0475,-2.0476,-2.0472,-2.0475,-2.0503,0,0,0,-1.9965,-2.0014,-2.0018,-2.0079,-2.009,-2.0186,-2.0209,-2.0282,-2.0334,-2.0345,-2.0475,-2.0476,-2.0472,-2.0474,-2.0502,-2.0523,-2.0529,0,0,-2.0014,-2.0019,-2.0057,-2.0064,-2.0154,-2.0168,-2.0257,-2.0328,-2.0356,-2.0434,-2.0438,-2.0473,-2.0475,-2.0503,-2.0575,-2.058,0,0,0,-2.0064,-2.0091,-2.012,-2.017,-2.0225,-2.0273,-2.0333,-2.0359,-2.0427,-2.0392,-2.0492,-2.0494,-2.0512,-2.0522,-2.0527,-2.0543,-2.048,-2.048,-2.048,-2.0098,-2.0131,-2.0196,-2.0244,-2.0292,-2.0353,-2.0395,-2.044,-2.046,-2.0483,-2.0506,-2.0546,-2.0557,-2.0561,-2.0577,-2.052,-2.052,-2.052,-2.052,-2.0171,-2.0214,-2.0239,-2.031,-2.0345,-2.0405,-2.0466,-2.0477,-2.0538,-2.0531,-2.0548,-2.0537,-2.0565,-2.0581,-2.052,-2.052,-2.052,-2.052,-2.052,-2.0196,-2.0222,-2.0254,-2.0329,-2.0382,-2.043,-2.0487,-2.0516,-2.0544,-2.0562,-2.0589,-2.0589,-2.0592,-2.0573,-2.0573,-2.0573,-2.0573,-2.0573,-2.0573,-2.0209,-2.0245,-2.0289,-2.0353,-2.0388,-2.0438,-2.0501,-2.0536,-2.0583,-2.06,-2.06,-2.0616,-2.0562,-2.0547,-2.0575,-2.0575,-2.0575,-2.0575,-2.0574,-2.0269,-2.026,-2.0329,-2.0365,-2.0441,-2.0492,-2.0529,-2.0599,-2.0633,-2.066,-2.0673,-2.0628,-2.0636,-2.0633,-2.062,-2.0666,-2.0666,-2.0666,-2.0666,-2.0289,-2.0296,-2.0373,-2.0428,-2.0485,-2.0526,-2.0602,-2.065,-2.0699,-2.0722,-2.072,-2.0706,-2.0702,-2.0712,-2.0707,-2.0696,-2.076,-2.0761,-2.0761,-2.0328,-2.0342,-2.0401,-2.0449,-2.0511,-2.0563,-2.0635,-2.0696,-2.075,-2.0765,-2.074,-2.0736,-2.0715,-2.0707,-2.0719,-2.0711,-2.0692,0,0]}]]